When you browse on this site, cookies collect data to enhance your experience and personalize the content and advertising you see.
Visit our Privacy Policy to learn more. By continuing to use the site, you agree to this use of cookies and data.
  • In Portugal
  • List of Countries
  • For 7 days
  • Water Temperature
  • Satellite Maps
  • Weather Map
  • Weather Widgets
  • user-avatar
    Login

    Hourly Weather Kerns

    Today, 24 March, Sunday

    Time Temperature Precipitation Wind Pressure Humidity
    00:00 +26°C° 0 mm 2 mps 758 mmHg 97%
    01:00 +26°C° 0 mm 2 mps 758 mmHg 97%
    02:00 +26°C° 0 mm 2 mps 758 mmHg 97%
    03:00 +26°C° 0 mm 2 mps 757 mmHg 97%
    04:00 +26°C° 0 mm 2 mps 757 mmHg 98%
    05:00 +26°C° 0 mm 2 mps 757 mmHg 97%
    06:00 +26°C° 0 mm 2 mps 758 mmHg 97%
    07:00 +27°C° 0 mm 2 mps 758 mmHg 97%
    08:00 +28°C° 0.1 mm 2 mps 758 mmHg 90%
    09:00 +30°C° 0.1 mm 2 mps 758 mmHg 83%
    10:00 +32°C° 0 mm 2 mps 759 mmHg 74%
    11:00 +32°C° 0.4 mm 2 mps 758 mmHg 77%
    12:00 +33°C° 0.4 mm 3 mps 758 mmHg 79%
    13:00 +33°C° 0.4 mm 3 mps 757 mmHg 82%
    14:00 +31°C° 0.9 mm 3 mps 757 mmHg 85%
    15:00 +31°C° 0.9 mm 3 mps 757 mmHg 88%
    16:00 +30°C° 0 mm 2 mps 757 mmHg 91%
    17:00 +29°C° 0.8 mm 2 mps 757 mmHg 93%
    18:00 +28°C° 0.8 mm 1 mps 758 mmHg 95%
    19:00 +27°C° 0.8 mm 1 mps 758 mmHg 97%
    20:00 +27°C° 0.2 mm 1 mps 758 mmHg 97%
    21:00 +27°C° 0.2 mm 1 mps 758 mmHg 98%
    22:00 +27°C° 0.2 mm 1 mps 759 mmHg 98%
    23:00 +26°C° 0 mm 1 mps 759 mmHg 98%

    Tomorrow, 25 March, Monday

    Time Temperature Precipitation Wind Pressure Humidity
    00:00 +26°C° 0 mm 1 mps 758 mmHg 98%
    01:00 +26°C° 0 mm 2 mps 758 mmHg 98%
    02:00 +26°C° 0 mm 2 mps 758 mmHg 98%
    03:00 +26°C° 0 mm 2 mps 758 mmHg 98%
    04:00 +26°C° 0 mm 2 mps 758 mmHg 98%
    05:00 +26°C° 0 mm 2 mps 758 mmHg 98%
    06:00 +26°C° 0 mm 2 mps 758 mmHg 98%
    07:00 +26°C° 0 mm 2 mps 758 mmHg 97%
    08:00 +28°C° 0 mm 2 mps 758 mmHg 88%
    09:00 +30°C° 0 mm 2 mps 759 mmHg 79%
    10:00 +32°C° 0 mm 2 mps 759 mmHg 70%
    11:00 +34°C° 0 mm 2 mps 758 mmHg 68%
    12:00 +34°C° 0 mm 3 mps 758 mmHg 67%
    13:00 +35°C° 0 mm 3 mps 757 mmHg 65%
    14:00 +34°C° 0.1 mm 3 mps 757 mmHg 67%
    15:00 +34°C° 0.1 mm 3 mps 757 mmHg 70%
    16:00 +33°C° 0.1 mm 3 mps 756 mmHg 72%
    17:00 +31°C° 0 mm 2 mps 757 mmHg 79%
    18:00 +29°C° 0 mm 2 mps 757 mmHg 86%
    19:00 +28°C° 0 mm 1 mps 758 mmHg 94%
    20:00 +27°C° 0.1 mm 1 mps 758 mmHg 95%
    21:00 +27°C° 0.1 mm 1 mps 759 mmHg 96%
    22:00 +27°C° 0.1 mm 1 mps 759 mmHg 97%
    23:00 +27°C° 0.1 mm 1 mps 759 mmHg 97%

    Day after tomorrow, 26 March, Tuesday

    Time Temperature Precipitation Wind Pressure Humidity
    00:00 +27°C° 0.1 mm 1 mps 759 mmHg 97%
    01:00 +27°C° 0.1 mm 1 mps 759 mmHg 97%
    02:00 +27°C° 0 mm 1 mps 758 mmHg 98%
    03:00 +27°C° 0 mm 1 mps 758 mmHg 98%
    04:00 +27°C° 0 mm 1 mps 758 mmHg 98%
    05:00 +27°C° 0 mm 2 mps 758 mmHg 97%
    06:00 +27°C° 0 mm 2 mps 758 mmHg 97%
    07:00 +27°C° 0 mm 2 mps 758 mmHg 96%
    08:00 +29°C° 0.1 mm 2 mps 759 mmHg 89%
    09:00 +30°C° 0.1 mm 2 mps 759 mmHg 82%
    10:00 +32°C° 0.1 mm 2 mps 759 mmHg 75%
    11:00 +32°C° 0.6 mm 2 mps 759 mmHg 78%
    12:00 +31°C° 0.6 mm 2 mps 758 mmHg 80%
    13:00 +31°C° 0.6 mm 2 mps 758 mmHg 83%
    14:00 +31°C° 0.3 mm 2 mps 757 mmHg 82%
    15:00 +31°C° 0.3 mm 2 mps 757 mmHg 82%
    16:00 +31°C° 0.3 mm 2 mps 756 mmHg 81%
    17:00 +30°C° 0 mm 2 mps 757 mmHg 85%
    18:00 +29°C° 0 mm 2 mps 757 mmHg 90%
    19:00 +28°C° 0 mm 1 mps 758 mmHg 94%
    20:00 +27°C° 0 mm 1 mps 758 mmHg 95%
    21:00 +27°C° 0 mm 1 mps 759 mmHg 95%
    22:00 +27°C° 0 mm 2 mps 759 mmHg 96%
    23:00 +27°C° 0.1 mm 1 mps 759 mmHg 97%

    27 March, Wednesday

    Time Temperature Precipitation Wind Pressure Humidity
    00:00 +27°C° 0.1 mm 1 mps 759 mmHg 97%
    01:00 +27°C° 0.1 mm 1 mps 758 mmHg 97%
    02:00 +27°C° 0.2 mm 1 mps 758 mmHg 98%
    03:00 +27°C° 0.2 mm 1 mps 758 mmHg 98%
    04:00 +27°C° 0.2 mm 1 mps 757 mmHg 98%
    05:00 +27°C° 0.1 mm 1 mps 758 mmHg 97%
    06:00 +27°C° 0.1 mm 1 mps 758 mmHg 97%
    07:00 +27°C° 0.1 mm 1 mps 758 mmHg 97%
    08:00 +29°C° 0.2 mm 2 mps 758 mmHg 90%
    09:00 +30°C° 0.2 mm 2 mps 759 mmHg 84%
    10:00 +31°C° 0.2 mm 2 mps 759 mmHg 78%
    11:00 +32°C° 0.4 mm 2 mps 758 mmHg 76%
    12:00 +32°C° 0.4 mm 2 mps 758 mmHg 75%
    13:00 +33°C° 0.4 mm 3 mps 757 mmHg 74%
    14:00 +33°C° 0.1 mm 3 mps 757 mmHg 73%
    15:00 +33°C° 0.1 mm 3 mps 756 mmHg 73%
    16:00 +33°C° 0.1 mm 3 mps 756 mmHg 73%
    17:00 +30°C° 0.1 mm 2 mps 756 mmHg 81%
    18:00 +29°C° 0.1 mm 2 mps 756 mmHg 88%
    19:00 +28°C° 0.1 mm 1 mps 757 mmHg 96%
    20:00 +27°C° 0.1 mm 1 mps 757 mmHg 96%
    21:00 +27°C° 0.1 mm 1 mps 758 mmHg 97%
    22:00 +27°C° 0.1 mm 1 mps 759 mmHg 97%
    23:00 +27°C° 0.1 mm 1 mps 758 mmHg 97%

    28 March, Thursday

    Time Temperature Precipitation Wind Pressure Humidity
    00:00 +25°C° 0.1 mm 0 mps 758 mmHg 98%
    01:00 +25°C° 0.1 mm 0 mps 757 mmHg 98%
    02:00 +25°C° 0 mm 0 mps 757 mmHg 98%
    03:00 +24°C° 0 mm 0 mps 756 mmHg 98%
    04:00 +26°C° 0 mm 1 mps 756 mmHg 98%
    05:00 +26°C° 0 mm 1 mps 756 mmHg 98%
    06:00 +26°C° 0 mm 1 mps 757 mmHg 97%
    07:00 +26°C° 0 mm 1 mps 757 mmHg 97%
    08:00 +28°C° 0.2 mm 1 mps 757 mmHg 89%
    09:00 +30°C° 0.2 mm 1 mps 758 mmHg 81%
    10:00 +32°C° 0.2 mm 1 mps 758 mmHg 73%
    11:00 +32°C° 1 mm 1 mps 757 mmHg 75%
    12:00 +32°C° 1 mm 1 mps 757 mmHg 78%
    13:00 +32°C° 1 mm 1 mps 756 mmHg 80%
    14:00 +32°C° 0.2 mm 2 mps 755 mmHg 79%
    15:00 +32°C° 0.2 mm 2 mps 755 mmHg 78%
    16:00 +31°C° 0.2 mm 2 mps 755 mmHg 77%
    17:00 +30°C° 0.1 mm 2 mps 755 mmHg 82%
    18:00 +29°C° 0.1 mm 1 mps 756 mmHg 88%
    19:00 +28°C° 0.1 mm 1 mps 756 mmHg 94%
    20:00 +27°C° 0.2 mm 1 mps 756 mmHg 95%
    21:00 +27°C° 0.2 mm 1 mps 757 mmHg 96%
    22:00 +25°C° 0.2 mm 0 mps 757 mmHg 97%
    23:00 +25°C° 0.1 mm 0 mps 757 mmHg 97%

    29 March, Friday

    Time Temperature Precipitation Wind Pressure Humidity
    00:00 +25°C° 0.1 mm 0 mps 757 mmHg 97%
    01:00 +25°C° 0.1 mm 0 mps 756 mmHg 98%
    02:00 +25°C° 0.1 mm 0 mps 756 mmHg 98%
    03:00 +25°C° 0.1 mm 0 mps 756 mmHg 98%
    04:00 +25°C° 0.1 mm 0 mps 756 mmHg 98%
    05:00 +25°C° 0 mm 0 mps 756 mmHg 97%
    06:00 +27°C° 0 mm 1 mps 756 mmHg 96%
    07:00 +27°C° 0 mm 1 mps 757 mmHg 96%
    08:00 +28°C° 0.1 mm 1 mps 757 mmHg 91%
    09:00 +29°C° 0.1 mm 1 mps 757 mmHg 85%
    10:00 +31°C° 0.1 mm 2 mps 757 mmHg 80%
    11:00 +31°C° 0.1 mm 2 mps 757 mmHg 75%
    12:00 +33°C° 0.1 mm 3 mps 756 mmHg 70%
    13:00 +34°C° 0.1 mm 3 mps 755 mmHg 65%
    14:00 +34°C° 0 mm 3 mps 755 mmHg 67%
    15:00 +33°C° 0 mm 3 mps 755 mmHg 68%
    16:00 +32°C° 0 mm 2 mps 754 mmHg 70%
    17:00 +30°C° 0 mm 2 mps 755 mmHg 77%
    18:00 +28°C° 0 mm 1 mps 755 mmHg 85%
    19:00 +27°C° 0 mm 1 mps 756 mmHg 92%
    20:00 +26°C° 0 mm 1 mps 756 mmHg 93%
    21:00 +24°C° 0 mm 0 mps 757 mmHg 95%
    22:00 +24°C° 0 mm 0 mps 757 mmHg 96%
    23:00 +24°C° 0 mm 0 mps 757 mmHg 96%
    Show more